(°C)
12°
12°
11°
11°
11°
11°
10°
(°C)
S
SSV
SSV
SSV
SSV
SSV
SSV
(km/h)
15-21
14-25
12-20
11-25
10-20
9-17
9-9
(mm)
0
0
0
0
0
0
0
(%)
0
0
0
0
0
0
0

Výška Slnka nad obzorom

/ -36.9°
sun-icon
UV 3
05:39
18:15
Dorastajúci polmesiac (124°)
16:23
24:00

Správy METAR pre lokalitu 46.38°S 44.32°V (URWI)

Čas Podmienky Teplota/
Rosný bod
Vietor Viditeľnosť Počasie Oblaky Tlak Zmeniť Nespracované
VFR 12°C / 5°C 20º 6kt >10km - Clear 1017 - URWI 161900Z AUTO 02003MPS 9999 // NSC 12/05 Q1017
VFR 12°C / 6°C 300º 6kt >10km - Clear 1016 - URWI 161830Z AUTO 30003MPS 9999 // NSC 12/06 Q1016
VFR 12°C / 6°C 300º 6kt >10km - Clear 1016 - URWI 161800Z AUTO 30003MPS 9999 // NSC 12/06 Q1016
VFR 12°C / 6°C 300º 6kt >10km - Clear 1016 - URWI 161730Z AUTO 30003MPS 9999 // NSC 12/06 Q1016
VFR 13°C / 6°C variable 2kt >10km - Clear 1015 - URWI 161700Z AUTO VRB01MPS 9999 // NSC 13/06 Q1015
VFR 14°C / 6°C 200º 4kt >10km - Clear 1015 - URWI 161630Z AUTO 20002MPS 9999 // NSC 14/06 Q1015
VFR 15°C / 6°C 160º 6kt >10km - Clear 1015 - URWI 161600Z AUTO 16003MPS 9999 // NSC 15/06 Q1015
16°C / 7°C 180º 6kt >10km - 1014 - URWI 161530Z AUTO 18003MPS 9999 // ///080/// 16/07 Q1014
16°C / 7°C 170º 6kt >10km - 1014 - URWI 161500Z AUTO 17003MPS 9999 // ///069/// 16/07 Q1014
16°C / 6°C 140º 4kt >10km - 1014 No Significant change. Runway 09: Clear and dry, 1-10% contamination with <1mm, friction coefficient 0.65. URWI 161430Z 14002MPS 9999 FEW///CB 16/06 Q1014 R09/010065 NOSIG
16°C / 6°C 150º 6kt >10km - 1014 No Significant change. Runway 09: Clear and dry, 1-10% contamination with <1mm, friction coefficient 0.65. URWI 161400Z 15003MPS 9999 FEW///CB 16/06 Q1014 R09/010065 NOSIG
VFR 16°C / 7°C 160º 6kt >10km - Few Clouds 5800ft 1014 No Significant change. Runway 09: Clear and dry, 1-10% contamination with <1mm, friction coefficient 0.65. URWI 161330Z 16003MPS 9999 FEW058CB 16/07 Q1014 R09/010065 NOSIG
17°C / 6°C 150º 6kt >10km - 1013 No Significant change. Runway 09: Clear and dry, 1-10% contamination with <1mm, friction coefficient 0.65. URWI 161300Z 15003MPS 9999 FEW///CB 17/06 Q1013 R09/010065 NOSIG
17°C / 6°C 160º 6kt >10km - 1013 No Significant change. Runway 09: Clear and dry, 1-10% contamination with <1mm, friction coefficient 0.65. URWI 161230Z 16003MPS 9999 FEW///CB 17/06 Q1013 R09/010065 NOSIG
VFR 17°C / 4°C 110º 6kt >10km - Few Clouds 6300ft 1013 No Significant change. Runway 09: Clear and dry, 1-10% contamination with <1mm, friction coefficient 0.65. URWI 161200Z 11003MPS 9999 FEW063CB 17/04 Q1013 R09/010065 NOSIG
VFR 17°C / 4°C 100º 6kt >10km Light Showers Rain 3.00mm precipitation Vertical Visibility of 0ft. 1013 No Significant change. Runway 09: Clear and dry, 1-10% contamination with <1mm, friction coefficient 0.65. URWI 161130Z 10003MPS 9999 -SHRA FEW069CB 17/04 Q1013 R09/010065 NOSIG
18°C / 4°C 60º 4kt >10km Light Showers Rain 3.00mm precipitation Vertical Visibility of 0ft. 1014 No Significant change. Runway 09: Clear and dry, 1-10% contamination with <1mm, friction coefficient 0.65. URWI 161100Z 06002MPS 9999 -SHRA FEW///CB 18/04 Q1014 R09/010065 NOSIG
18°C / 1°C 40º 6kt >10km Light Showers Rain 3.00mm precipitation Vertical Visibility of 0ft. 1014 No Significant change. Runway 09: Clear and dry, 1-10% contamination with <1mm, friction coefficient 0.65. URWI 161030Z 04003MPS 9999 -SHRA FEW///CB 18/01 Q1014 R09/010065 NOSIG
18°C / 1°C 40º 6kt >10km - 1014 No Significant change. Runway 09: Clear and dry, 1-10% contamination with <1mm, friction coefficient 0.65. URWI 161000Z 04003MPS 9999 FEW///CB 18/01 Q1014 R09/010065 NOSIG
18°C / 1°C 40º 6kt >10km - 1014 No Significant change. Runway 09: Clear and dry, 1-10% contamination with <1mm, friction coefficient 0.65. URWI 160930Z 04003MPS 9999 FEW///CB 18/01 Q1014 R09/010065 NOSIG
17°C / 1°C 60º 6kt >10km - 1014 No Significant change. Runway 09: Clear and dry, 1-10% contamination with <1mm, friction coefficient 0.65. URWI 160900Z 06003MPS 9999 FEW///CB 17/01 Q1014 R09/010065 NOSIG
VFR 17°C / 0°C 60º 8kt >10km - Few Clouds 6200ft 1014 No Significant change. Runway 09: Clear and dry, 1-10% contamination with <1mm, friction coefficient 0.65. URWI 160830Z 06004MPS 9999 FEW062CB 17/00 Q1014 R09/010065 NOSIG
17°C / 1°C 40º 10kt >10km - 1014 No Significant change. Runway 09: Clear and dry, 1-10% contamination with <1mm, friction coefficient 0.65. URWI 160800Z 04005MPS 9999 FEW///CB 17/01 Q1014 R09/010065 NOSIG
18°C / 0°C 70º 8kt >10km - 1014 No Significant change. Runway 09: Clear and dry, 1-10% contamination with <1mm, friction coefficient 0.65. URWI 160730Z 07004MPS 9999 FEW///CB 18/M00 Q1014 R09/010065 NOSIG

VFR

12°C / 5°C

[Viac]
Vietor 20º 6kt
Viditeľnosť >10km
Počasie -
Oblaky Clear
Tlak 1017
Zmeniť -
Nespracované URWI 161900Z AUTO 02003MPS 9999 // NSC 12/05 Q1017

VFR

12°C / 6°C

[Viac]
Vietor 300º 6kt
Viditeľnosť >10km
Počasie -
Oblaky Clear
Tlak 1016
Zmeniť -
Nespracované URWI 161830Z AUTO 30003MPS 9999 // NSC 12/06 Q1016

VFR

12°C / 6°C

[Viac]
Vietor 300º 6kt
Viditeľnosť >10km
Počasie -
Oblaky Clear
Tlak 1016
Zmeniť -
Nespracované URWI 161800Z AUTO 30003MPS 9999 // NSC 12/06 Q1016

VFR

12°C / 6°C

[Viac]
Vietor 300º 6kt
Viditeľnosť >10km
Počasie -
Oblaky Clear
Tlak 1016
Zmeniť -
Nespracované URWI 161730Z AUTO 30003MPS 9999 // NSC 12/06 Q1016

VFR

13°C / 6°C

[Viac]
Vietor variable 2kt
Viditeľnosť >10km
Počasie -
Oblaky Clear
Tlak 1015
Zmeniť -
Nespracované URWI 161700Z AUTO VRB01MPS 9999 // NSC 13/06 Q1015

VFR

14°C / 6°C

[Viac]
Vietor 200º 4kt
Viditeľnosť >10km
Počasie -
Oblaky Clear
Tlak 1015
Zmeniť -
Nespracované URWI 161630Z AUTO 20002MPS 9999 // NSC 14/06 Q1015

VFR

15°C / 6°C

[Viac]
Vietor 160º 6kt
Viditeľnosť >10km
Počasie -
Oblaky Clear
Tlak 1015
Zmeniť -
Nespracované URWI 161600Z AUTO 16003MPS 9999 // NSC 15/06 Q1015

16°C / 7°C

[Viac]
Vietor 180º 6kt
Viditeľnosť >10km
Počasie -
Oblaky
Tlak 1014
Zmeniť -
Nespracované URWI 161530Z AUTO 18003MPS 9999 // ///080/// 16/07 Q1014

16°C / 7°C

[Viac]
Vietor 170º 6kt
Viditeľnosť >10km
Počasie -
Oblaky
Tlak 1014
Zmeniť -
Nespracované URWI 161500Z AUTO 17003MPS 9999 // ///069/// 16/07 Q1014

16°C / 6°C

[Viac]
Vietor 140º 4kt
Viditeľnosť >10km
Počasie -
Oblaky
Tlak 1014
Zmeniť No Significant change. Runway 09: Clear and dry, 1-10% contamination with <1mm, friction coefficient 0.65.
Nespracované URWI 161430Z 14002MPS 9999 FEW///CB 16/06 Q1014 R09/010065 NOSIG

16°C / 6°C

[Viac]
Vietor 150º 6kt
Viditeľnosť >10km
Počasie -
Oblaky
Tlak 1014
Zmeniť No Significant change. Runway 09: Clear and dry, 1-10% contamination with <1mm, friction coefficient 0.65.
Nespracované URWI 161400Z 15003MPS 9999 FEW///CB 16/06 Q1014 R09/010065 NOSIG

VFR

16°C / 7°C

[Viac]
Vietor 160º 6kt
Viditeľnosť >10km
Počasie -
Oblaky Few Clouds 5800ft
Tlak 1014
Zmeniť No Significant change. Runway 09: Clear and dry, 1-10% contamination with <1mm, friction coefficient 0.65.
Nespracované URWI 161330Z 16003MPS 9999 FEW058CB 16/07 Q1014 R09/010065 NOSIG

17°C / 6°C

[Viac]
Vietor 150º 6kt
Viditeľnosť >10km
Počasie -
Oblaky
Tlak 1013
Zmeniť No Significant change. Runway 09: Clear and dry, 1-10% contamination with <1mm, friction coefficient 0.65.
Nespracované URWI 161300Z 15003MPS 9999 FEW///CB 17/06 Q1013 R09/010065 NOSIG

17°C / 6°C

[Viac]
Vietor 160º 6kt
Viditeľnosť >10km
Počasie -
Oblaky
Tlak 1013
Zmeniť No Significant change. Runway 09: Clear and dry, 1-10% contamination with <1mm, friction coefficient 0.65.
Nespracované URWI 161230Z 16003MPS 9999 FEW///CB 17/06 Q1013 R09/010065 NOSIG

VFR

17°C / 4°C

[Viac]
Vietor 110º 6kt
Viditeľnosť >10km
Počasie -
Oblaky Few Clouds 6300ft
Tlak 1013
Zmeniť No Significant change. Runway 09: Clear and dry, 1-10% contamination with <1mm, friction coefficient 0.65.
Nespracované URWI 161200Z 11003MPS 9999 FEW063CB 17/04 Q1013 R09/010065 NOSIG

VFR

17°C / 4°C

[Viac]
Vietor 100º 6kt
Viditeľnosť >10km
Počasie Light Showers Rain 3.00mm precipitation
Oblaky Vertical Visibility of 0ft.
Tlak 1013
Zmeniť No Significant change. Runway 09: Clear and dry, 1-10% contamination with <1mm, friction coefficient 0.65.
Nespracované URWI 161130Z 10003MPS 9999 -SHRA FEW069CB 17/04 Q1013 R09/010065 NOSIG

18°C / 4°C

[Viac]
Vietor 60º 4kt
Viditeľnosť >10km
Počasie Light Showers Rain 3.00mm precipitation
Oblaky Vertical Visibility of 0ft.
Tlak 1014
Zmeniť No Significant change. Runway 09: Clear and dry, 1-10% contamination with <1mm, friction coefficient 0.65.
Nespracované URWI 161100Z 06002MPS 9999 -SHRA FEW///CB 18/04 Q1014 R09/010065 NOSIG

18°C / 1°C

[Viac]
Vietor 40º 6kt
Viditeľnosť >10km
Počasie Light Showers Rain 3.00mm precipitation
Oblaky Vertical Visibility of 0ft.
Tlak 1014
Zmeniť No Significant change. Runway 09: Clear and dry, 1-10% contamination with <1mm, friction coefficient 0.65.
Nespracované URWI 161030Z 04003MPS 9999 -SHRA FEW///CB 18/01 Q1014 R09/010065 NOSIG

18°C / 1°C

[Viac]
Vietor 40º 6kt
Viditeľnosť >10km
Počasie -
Oblaky
Tlak 1014
Zmeniť No Significant change. Runway 09: Clear and dry, 1-10% contamination with <1mm, friction coefficient 0.65.
Nespracované URWI 161000Z 04003MPS 9999 FEW///CB 18/01 Q1014 R09/010065 NOSIG

18°C / 1°C

[Viac]
Vietor 40º 6kt
Viditeľnosť >10km
Počasie -
Oblaky
Tlak 1014
Zmeniť No Significant change. Runway 09: Clear and dry, 1-10% contamination with <1mm, friction coefficient 0.65.
Nespracované URWI 160930Z 04003MPS 9999 FEW///CB 18/01 Q1014 R09/010065 NOSIG

17°C / 1°C

[Viac]
Vietor 60º 6kt
Viditeľnosť >10km
Počasie -
Oblaky
Tlak 1014
Zmeniť No Significant change. Runway 09: Clear and dry, 1-10% contamination with <1mm, friction coefficient 0.65.
Nespracované URWI 160900Z 06003MPS 9999 FEW///CB 17/01 Q1014 R09/010065 NOSIG

VFR

17°C / 0°C

[Viac]
Vietor 60º 8kt
Viditeľnosť >10km
Počasie -
Oblaky Few Clouds 6200ft
Tlak 1014
Zmeniť No Significant change. Runway 09: Clear and dry, 1-10% contamination with <1mm, friction coefficient 0.65.
Nespracované URWI 160830Z 06004MPS 9999 FEW062CB 17/00 Q1014 R09/010065 NOSIG

17°C / 1°C

[Viac]
Vietor 40º 10kt
Viditeľnosť >10km
Počasie -
Oblaky
Tlak 1014
Zmeniť No Significant change. Runway 09: Clear and dry, 1-10% contamination with <1mm, friction coefficient 0.65.
Nespracované URWI 160800Z 04005MPS 9999 FEW///CB 17/01 Q1014 R09/010065 NOSIG

18°C / 0°C

[Viac]
Vietor 70º 8kt
Viditeľnosť >10km
Počasie -
Oblaky
Tlak 1014
Zmeniť No Significant change. Runway 09: Clear and dry, 1-10% contamination with <1mm, friction coefficient 0.65.
Nespracované URWI 160730Z 07004MPS 9999 FEW///CB 18/M00 Q1014 R09/010065 NOSIG

Správy TAF pre lokalitu 46.38°S 44.32°V (URWI)

From till


From till Wind 40º 6kt. Gust 16kt. Visibility 10km or more. Scattered Clouds 3000ft.
With 40% probability, Temporarly from till Light Thunderstorm Rain .
Temporarly from till Wind 60º 6kt. Gust 19kt. Light Showers Rain . Scattered Clouds 1600ft. Broken Clouds 3000ft.

Nespracované: TAF URWI 161056Z 1612/1621 04003G08MPS 9999 SCT030CB TEMPO 1612/1621 06003G10MPS -SHRA SCT016 BKN030CB PROB40 TEMPO 1612/1618 -TSRA

Aktuálne satelitné snímky a snímky zrážok pre lokalitu 46.38°S 44.32°V

Značka polohy je umiestnená na46.38°S 44.32°V. [Viac]

Satelitné snímky zhotovované v reálnom čase využívajú viditeľné svetlo počas dňa a infračervené žiarenie počas noci. Vzhľadom na to, že infračervené žiarenie zisťuje teplotné rozdiely, snímka v noci nie je tmavá. Nízke oblaky a hmlu je, žiaľ, ťažké odlíšiť od prízemných teplôt, preto môžu byť počas noci takmer neviditeľné. Meteosat satelitné snímky pre Európu sú aktualizované v reálnom čase každých 5 minút. Snímky z GOES-16/GOES-17 (Severná a Južná Amerika) a Himawari (Ázia) sú aktualizované každých 10 minút.

Copyright 2021 EUMETSAT / meteoblue. / Copyright 2021 meteoblue

Radar a krátkodobá predpoveď zrážok pre 46.38°S 44.32°V

Mrholenie
Slabý
Mierne
Ťažké
Veľmi ťažké
Krúpy

Značka polohy je umiestnená na 46.38°S 44.32°V. Táto animácia ukazuje zrážky pozorované radarom za poslednú hodinu a tiež 1h predpoveď. Mrholenie alebo slabé sneženie môže byť pre radar neviditeľné. Intenzita zrážok je farebne označená od svetlomodrej po oranžovú.